Preview of NWS' New Version of Forecast
This preview is not operational and should not be used for support decisions.

Regional Weather Roundup (RWR)

Issued by National Weather Service (NWS)

                            
000
ASUS43 KMKX 170811
RWRWI 

WISCONSIN REGIONAL WEATHER ROUNDUP
NATIONAL WEATHER SERVICE MILWAUKEE/SULLIVAN WI
300 AM CDT MON JUN 17 2019

NOTE: "FAIR" INDICATES FEW OR NO CLOUDS BELOW 12,000 FEET WITH NO
SIGNIFICANT WEATHER AND/OR OBSTRUCTIONS TO VISIBILITY.

WIZ001-002-006>008-014>016-023>028-170900-
NORTHWEST WISCONSIN
  
CITY           SKY/WX    TMP DP  RH WIND       PRES   REMARKS
SUPERIOR ARPT  DRIZZLE   46  44  95 CALM      29.98S                  
ASHLAND        FAIR      42  42 100 SW3       29.99S                  
HAYWARD        FAIR      46  44  93 CALM      30.00R                  
SIREN          CLOUDY    58  56  93 S6        29.97R                  
CUMBERLAND     CLOUDY    54  52  94 S5        29.98F                  
RICE LAKE      CLOUDY    55  52  89 SE5       30.00R                  
CHETEK         CLOUDY    53  53  97 SE3       29.99S                  
LADYSMITH      FAIR      50  49  99 CALM      30.01S                  
EAU CLAIRE     FAIR      49  47  93 CALM      29.97S                  
MENOMONIE      CLOUDY    53  50  92 E3        29.98S                  
NEW RICHMOND   CLOUDY    57  54  88 S5        29.98S                  
OSCEOLA        CLOUDY    58  56  93 SE8       29.99F                  
$$
 
WIZ003>005-009-010-017-018-170900-
NORTH CENTRAL WISCONSIN
  
CITY           SKY/WX    TMP DP  RH WIND       PRES   REMARKS
MANITOWISH WTR FAIR      48  48 100 CALM      30.00S                  
ARBOR VITAE    FAIR      54  52  93 CALM      30.00S                  
WOODRUFF       FAIR      54  52  93 CALM      30.00S                  
RHINELANDER    FOG       46  42  86 CALM      30.01F VSB 1/2          
EAGLE RIVER    CLOUDY    51  50  95 CALM      30.00F                  
LAND O LAKES   CLOUDY    48  47  97 CALM      30.02S                  
PHILLIPS       FAIR      47  47 100 CALM      30.00S                  
TOMAHAWK       MOCLDY    41  41  97 CALM      30.02S                  
MEDFORD        FOG       44  44  99 NE3       30.00S VSB 3/4          
MERRILL        FAIR      43  43 100 CALM      30.02R                  
$$
 
WIZ029-030-035-036-043>047-170900-
CENTRAL WISCONSIN
  
CITY           SKY/WX    TMP DP  RH WIND       PRES   REMARKS
WAUSAU         FAIR      49  47  93 CALM      29.99S                  
MOSINEE        MOCLDY    45  45 100 CALM      30.01S                  
MARSHFIELD     FAIR      51  50  96 NE3       29.98F                  
STEVENS POINT  FAIR      49  49 100 N3        30.00F                  
WAUPACA        CLOUDY    55  54  97 CALM      29.99F                  
WAUTOMA        CLOUDY    54  52  93 CALM      29.99S                  
WISC RAPIDS    CLOUDY    54  52  93 CALM      30.00R                  
CAMP DOUGLAS   CLOUDY    52  52 100 CALM      29.98S                  
$$
 
WIZ011>013-019>022-031-037>040-048>050-170900-
NORTHEAST WISCONSIN
  
CITY           SKY/WX    TMP DP  RH WIND       PRES   REMARKS
ANTIGO         FAIR      46  46 100 CALM      30.02S                  
SHAWANO        FAIR      49  45  83 CALM      30.00S FOG              
OCONTO         FAIR      48  48  99 CALM      29.99F                  
STURGEON BAY   FAIR      46  44  93 CALM      30.00F                  
GREEN BAY      CLOUDY    56  52  86 N3        29.99S                  
MANITOWOC      CLOUDY    51  49  92 CALM      29.98F                  
APPLETON       CLOUDY    54  45  71 CALM      29.98S                  
CLINTONVILLE   FAIR      50  48  93 CALM      29.99F                  
OSHKOSH        CLOUDY    56  51  84 CALM      29.97F                  
$$
 
WIZ032>034-041-042-053>061-170900-
SOUTHWEST WISCONSIN
  
CITY           SKY/WX    TMP DP  RH WIND       PRES   REMARKS
LA CROSSE      CLOUDY    60  51  72 E6        29.97S                  
SPARTA         CLOUDY    50  49  97 CALM      29.99S                  
VIROQUA        CLOUDY    55  55 100 CALM      29.98S                  
BOSCOBEL       CLOUDY    59  55  87 CALM      29.97S                  
PRAIRIE DU CHI CLOUDY    58  55  88 CALM      29.96F                  
PLATTEVILLE    CLOUDY    58  58 100 N6        29.96F                  
$$

WIZ056-057-062-063-064-067-068-170900-
SOUTH CENTRAL WISCONSIN
  
CITY           SKY/WX    TMP DP  RH WIND       PRES   REMARKS
REEDSBURG      CLOUDY    53  53  99 CALM      29.97S                  
BARABOO/DELLS  FAIR      51  50  95 CALM      29.97S                  
LONE ROCK      CLOUDY    58  53  84 N3        29.96F                  
MINERAL POINT  CLOUDY    59  59 100 N3        29.96S                  
MADISON        CLOUDY    56  52  86 NE3       29.95F                  
MIDDLETON      FAIR      54  51  92 CALM      29.97S                  
WATERTOWN      MOCLDY    53  53 100 CALM      29.96S                  
MONROE         FAIR      54  52  94 N5        29.95S                  
JANESVILLE     CLOUDY    57  52  82 NE5       29.95S                  
$$
 
WIZ051-052-058>065-066-070>072-170900-
SOUTHEAST WISCONSIN
  
CITY           SKY/WX    TMP DP  RH WIND       PRES   REMARKS
MILWAUKEE      CLOUDY    53  48  83 N9        29.96S                  
WAUKESHA       CLOUDY    52  50  93 NE3       29.97F                  
MILWAUKEE/TIMM CLOUDY    54  46  76 NE3       29.97F                  
RACINE         CLOUDY    52  48  86 N9        29.96F                  
KENOSHA        CLOUDY    55  52  89 N6        29.95S                  
FOND DU LAC    CLOUDY    55  49  80 CALM      29.97F                  
SHEBOYGAN      CLOUDY    54  49  83 NE5       29.97S                  
WEST BEND      CLOUDY    54  52  94 NE3       29.97S                  
JUNEAU         MOCLDY    54  51  91 CALM      29.97F                  
$$

LSZ147-162-170900-
LAKE SUPERIOR
  
STATION/POSITION TIME  TEMP    WIND        PRES    WAVE
                       AIR SEA DIR/SP/G            HT/PER
                 (UTC) (F)     (DEG/KT/KT) (MB)    (FT/S)
W MID LAKE BUOY  0750   40 38   10/  6/  6 1016.1R   1
$$
 
LMZ867-665-643>646-170900-
LAKE MICHIGAN
  
STATION/POSITION TIME  TEMP    WIND        PRES    WAVE
                       AIR SEA DIR/SP/G            HT/PER
                 (UTC) (F)     (DEG/KT/KT) (MB)    (FT/S)
S GREEN BAY BUOY 0730   59 60   40/  4/  6 1015.9S
N MID LAKE BUOY  0750   42 39  300/  6/  6 1016.7R   0
NORTHPORT PIER   0740   48      CALM  /  2 1016.3R
SHEBOYGAN LAKESH 0800   51     360/  9/ 10 1015.1F
MILWAUKEE LAKESH 0750   51     360/  8/  9   N/A
S MID LAKE BUOY  0740   47      20/  8/  8 1014.6R
KENOSHA   LAKESH 0800   54      20/ 10/ 12 1014.2
$$

TC  - TEMPERATURE IN CELSIUS
VSB - VISIBILITY IN STATUTE MILES
WCI - WIND CHILL INDEX
HX  - HEAT INDEX